Location: Hanover
(52.3667°N, 9.7167°E)
Time: 03:52:48
(UTC+02:00)

ARIANE 6 FM1 Upper Stage - Pass Details

Date: 21 September 2024
Orbit: 564 x 594 km, 62.0° (Epoch: 06 October)

Event Time Altitude Azimuth Distance (km) Brightness Sun altitude
Rises 21:57:40 0° 231° (SW) 2,783 6.4 -23.4°
Reaches altitude 10° 21:59:53 10° 232° (SW) 1,893 5.5 -23.6°
Maximum altitude 22:04:10 81° 319° (NW) 599 2.7 -24.2°
Enters shadow 22:04:13 80° 331° (NNW) 599 2.7 -24.2°
